Location: Eschentzwiller
(47.7125°N, 7.3981°E)
Time: 00:41:15
(UTC+00:00)

NOSS 3-4 (C) - Pass Details

Date: 27 October 2020
Orbit: 886 x 1326 km, 63.4° (Epoch: 06 November)

Event Time Altitude Azimuth Distance (km) Brightness Sun altitude
Rises 19:22:19 0° 319° (NW) 3,804 7.4 -31.0°
Reaches altitude 10° 19:24:50 10° 319° (NW) 2,907 6.6 -31.4°
Enters shadow 19:31:43 87° 270° (W) 1,164 3.7 -32.6°
